Location: Frankfurt+(oder)
(51.7984°N, 12.2168°E)
Time: 10:20:56
(UTC+01:00)

Amateur Radio Satellites - All Passes

Search period start: 16 January 2018 09:50
Search period end: 17 January 2018 09:50
Location: Frankfurt+(oder), 51.7984°N, 12.2168°E

Satellite Date Start Highest point End Downlink Frequencies (MHz)
Time Altitude Azimuth
AAUSAT CUBESAT 2 16 Jan 09:51:35 09:53:50 14° 303° (WNW) 09:56:05 437.432
ZACube-1 16 Jan 10:00:01 10:03:15 19° 302° (WNW) 10:06:28 437.345
Max Valier Satellite 16 Jan 10:01:18 10:05:01 62° 101° (ESE) 10:08:41 145.860
AO-73 16 Jan 10:10:33 10:13:34 18° 303° (WNW) 10:16:33 145.935
EO-79 16 Jan 10:11:36 10:15:06 26° 63° (ENE) 10:18:39 145.935-145.965
BEESAT 3 16 Jan 10:12:01 10:12:33 10° 110° (ESE) 10:13:03 437.485
DUCHIFAT 1 16 Jan 10:17:48 10:21:10 24° 62° (ENE) 10:24:33 145.980
AO-7 16 Jan 10:25:12 10:27:50 12° 14° (NNE) 10:30:29 .
RS-15 16 Jan 10:25:29 10:37:53 87° 312° (NW) 10:50:00 29.354- 29.394
SO-50 16 Jan 10:32:38 10:35:50 18° 349° (N) 10:39:04 436.795
EO-88 16 Jan 10:33:43 10:37:24 85° 284° (WNW) 10:41:02 145.990 - 145.960
ESTCUBE 1 16 Jan 10:36:22 10:39:06 16° 88° (E) 10:41:49 437.505/2401.250
LO-87 16 Jan 10:38:27 10:40:53 17° 91° (E) 10:43:18 145.935 - 145.965
TIGRISAT 16 Jan 10:39:40 10:41:38 13° 275° (W) 10:43:39 435.000
HO-68 16 Jan 10:41:24 10:44:34 13° 325° (NW) 10:47:43 435.675
POLYITAN 1 16 Jan 10:44:17 10:48:23 50° 69° (ENE) 10:52:31 437.675
Oscar 11 16 Jan 10:51:29 10:52:51 11° 307° (NW) 10:54:12 .
Oscar 19 16 Jan 10:56:04 10:59:12 16° 52° (NE) 11:02:21 437.125/150
NANOSAT C BR1 16 Jan 11:05:15 11:09:27 71° 72° (ENE) 11:13:41 145.865
PRISM 16 Jan 11:12:08 11:14:44 16° 270° (W) 11:17:21 437.425
QB50P2 16 Jan 11:13:19 11:17:33 80° 255° (WSW) 11:21:51 145.880/145.840
YUBILEINY 16 Jan 11:18:09 11:26:50 67° 266° (W) 11:35:24 435.215
DELFI C3 16 Jan 11:21:04 11:23:39 17° 300° (WNW) 11:26:14 145.870
AIST 2D 16 Jan 11:21:36 11:24:25 22° 267° (W) 11:27:14 435.315
PCSat 16 Jan 11:24:10 11:29:29 58° 120° (ESE) 11:34:48 145.827
O/OREOS (USA 219) 16 Jan 11:24:56 11:29:18 53° 248° (WSW) 11:33:39 437.305
AO-91 16 Jan 11:25:58 11:27:50 14° 59° (ENE) 11:29:45 145.960
Gurwin Techsat 1B 16 Jan 11:35:23 11:39:36 25° 57° (ENE) 11:43:50 435.225
Max Valier Satellite 16 Jan 11:36:08 11:38:25 16° 300° (WNW) 11:40:39 145.860
BUGSAT 1 16 Jan 11:40:46 11:44:32 37° 67° (ENE) 11:48:22 437.445
SPROUT 16 Jan 11:41:01 11:43:54 17° 89° (E) 11:46:46 437.525
BEESAT 3 16 Jan 11:45:20 11:49:18 69° 129° (SE) 11:53:18 437.485
EO-79 16 Jan 11:46:41 11:50:41 42° 262° (W) 11:54:45 145.935-145.965
DUCHIFAT 1 16 Jan 11:52:32 11:56:35 47° 261° (W) 12:00:41 145.980
EO-88 16 Jan 12:09:30 12:10:23 11° 304° (NW) 12:11:17 145.990 - 145.960
LO-87 16 Jan 12:11:01 12:14:31 47° 290° (WNW) 12:18:01 145.935 - 145.965
AO-7 16 Jan 12:11:20 12:17:45 25° 40° (NE) 12:24:10 .
ESTCUBE 1 16 Jan 12:11:56 12:16:27 75° 287° (WNW) 12:20:56 437.505/2401.250
SO-50 16 Jan 12:14:34 12:17:54 19° 14° (NNE) 12:21:16 436.795
BEESAT 2 16 Jan 12:19:42 12:23:34 47° 124° (SE) 12:27:28 435.950
POLYITAN 1 16 Jan 12:21:10 12:24:26 21° 268° (W) 12:27:43 437.675
Oscar 19 16 Jan 12:32:32 12:37:44 77° 72° (ENE) 12:42:58 437.125/150
VELOX 1 16 Jan 12:36:13 12:40:11 32° 96° (E) 12:44:07 145.980
RS-15 16 Jan 12:40:11 12:52:00 49° 342° (NNW) 13:03:25 29.354- 29.394
NANOSAT C BR1 16 Jan 12:43:09 12:45:38 15° 272° (W) 12:48:09 145.865
QB50P2 16 Jan 12:53:22 12:54:05 10° 275° (W) 12:54:48 145.880/145.840
AO-91 16 Jan 13:00:40 13:03:58 52° 259° (W) 13:07:21 145.960
PCSat 16 Jan 13:08:07 13:13:09 37° 322° (NW) 13:18:12 145.827
DX 1 16 Jan 13:10:33 13:13:21 17° 90° (E) 13:16:10 434.975-435.025
UKube-1 16 Jan 13:12:04 13:13:04 11° 86° (E) 13:14:03 .
Gurwin Techsat 1B 16 Jan 13:13:50 13:19:08 68° 257° (WSW) 13:24:28 435.225
SPROUT 16 Jan 13:15:56 13:20:12 63° 289° (WNW) 13:24:27 437.525
BUGSAT 1 16 Jan 13:16:33 13:19:59 26° 266° (W) 13:23:30 437.445
YUBILEINY 16 Jan 13:16:50 13:21:53 17° 290° (WNW) 13:26:55 435.215
BEESAT 3 16 Jan 13:23:48 13:27:12 26° 329° (NNW) 13:30:35 437.485
ITAMSAT 1 16 Jan 13:28:30 13:32:18 21° 55° (NE) 13:36:07 435.822/435.867
ESTCUBE 1 16 Jan 13:50:23 13:52:30 13° 307° (NW) 13:54:36 437.505/2401.250
SO-50 16 Jan 13:55:00 13:59:28 43° 37° (NE) 14:03:59 436.795
AO-85 16 Jan 13:56:01 14:00:00 64° 128° (SE) 14:04:20 145.980
BEESAT 2 16 Jan 13:57:43 14:01:25 33° 325° (NW) 14:05:08 435.950
AO-7 16 Jan 14:00:59 14:09:17 73° 64° (ENE) 14:17:39 .
VELOX 1 16 Jan 14:12:39 14:16:39 35° 295° (WNW) 14:20:38 145.980
50 SAT 16 Jan 14:13:46 14:16:53 62° 102° (ESE) 14:19:57 437.505
Oscar 19 16 Jan 14:14:00 14:17:39 19° 271° (W) 14:21:19 437.125/150
M-CUBED/EXP-1 PRIME 16 Jan 14:24:19 14:27:53 26° 57° (ENE) 14:31:17 437.505
BEESAT 16 Jan 14:38:32 14:41:29 16° 88° (E) 14:44:25 436.000
UKube-1 16 Jan 14:45:28 14:49:48 80° 105° (ESE) 14:54:06 .
DX 1 16 Jan 14:45:41 14:50:00 67° 288° (WNW) 14:54:18 434.975-435.025
SPROUT 16 Jan 14:54:12 14:55:15 11° 308° (NW) 14:56:18 437.525
PCSat 16 Jan 14:54:28 14:58:06 18° 347° (NNW) 15:01:44 145.827
RS-15 16 Jan 14:55:55 15:07:33 48° 15° (NNE) 15:18:36 29.354- 29.394
Gurwin Techsat 1B 16 Jan 14:58:20 15:00:06 12° 277° (W) 15:01:53 435.225
BEESAT 3 16 Jan 15:04:00 15:05:58 13° 352° (N) 15:07:56 437.485
ITAMSAT 1 16 Jan 15:06:03 15:11:14 78° 256° (WSW) 15:16:27 435.822/435.867
CUBESAT XI-V 16 Jan 15:06:39 15:09:05 14° 86° (E) 15:11:31 437.345
MOZHAYETS 4 16 Jan 15:16:38 15:21:13 54° 100° (E) 15:25:45
ITUPSAT 1 16 Jan 15:31:41 15:36:18 43° 99° (E) 15:40:53 437.325
SO-50 16 Jan 15:35:33 15:39:58 42° 237° (WSW) 15:44:26 436.795
AO-85 16 Jan 15:37:05 15:40:47 29° 330° (NNW) 15:44:45 145.980
BEESAT 2 16 Jan 15:37:56 15:40:15 15° 348° (NNW) 15:42:35 435.950
DOVE 4 16 Jan 15:44:07 15:48:24 62° 72° (ENE) 15:52:33 437.250
50 SAT 16 Jan 15:47:03 15:48:10 11° 301° (WNW) 15:49:17 437.505
LilacSat-2 16 Jan 15:47:14 15:49:13 14° 58° (ENE) 15:51:11 437.200
HO-68 16 Jan 15:53:26 15:58:25 21° 44° (NE) 16:03:25 435.675
AO-7 16 Jan 15:55:23 16:02:44 34° 266° (W) 16:10:10 .
XW-2C 16 Jan 15:56:06 15:58:21 15° 59° (ENE) 16:00:37 145.795 - 145.815
M-CUBED/EXP-1 PRIME 16 Jan 15:57:48 16:02:05 48° 254° (WSW) 16:06:08 437.505
CUTE-I 16 Jan 16:02:09 16:06:14 23° 56° (NE) 16:10:21 437.470
BEESAT 16 Jan 16:15:03 16:19:52 81° 287° (WNW) 16:24:40 436.000
UKube-1 16 Jan 16:22:37 16:25:17 16° 304° (NW) 16:27:57 .
DX 1 16 Jan 16:23:54 16:25:23 12° 308° (NW) 16:26:52 434.975-435.025
XW-2F 16 Jan 16:36:23 16:39:47 32° 67° (ENE) 16:43:13 145.980 - 146.000
PCSat 16 Jan 16:39:56 16:43:36 18° 14° (NNE) 16:47:17 145.827
XW-2D 16 Jan 16:41:08 16:44:44 39° 69° (ENE) 16:48:20 145.860 - 145.880
CUBESAT XI-V 16 Jan 16:42:27 16:47:08 87° 289° (WNW) 16:51:44 437.345
BEESAT 3 16 Jan 16:42:33 16:45:01 16° 17° (NNE) 16:47:28 437.485
KAITUO 1B 16 Jan 16:44:12 16:47:32 30° 66° (ENE) 16:50:52 145.475/437.950
ITAMSAT 1 16 Jan 16:49:07 16:51:34 13° 275° (W) 16:54:01 435.822/435.867
MOZHAYETS 4 16 Jan 16:54:20 16:58:04 25° 300° (WNW) 17:01:48
CUBEBUG 2 16 Jan 16:57:09 16:59:52 16° 56° (NE) 17:02:39 437.445
XW-2B 16 Jan 16:58:18 17:02:05 56° 72° (ENE) 17:05:51 145.730 - 145.750
NUDT-PHONESAT 16 Jan 17:04:48 17:08:23 45° 70° (ENE) 17:11:59 437.300
RS-15 16 Jan 17:09:43 17:21:45 83° 46° (NE) 17:33:05 29.354- 29.394
ITUPSAT 1 16 Jan 17:09:46 17:14:00 31° 298° (WNW) 17:18:12 437.325
UWE-3 16 Jan 17:14:04 17:16:31 15° 55° (NE) 17:19:01 435.000/436.395/437.385
BEESAT 2 16 Jan 17:17:12 17:19:31 15° 12° (NNE) 17:21:49 435.950
LilacSat-2 16 Jan 17:19:04 17:22:57 80° 257° (WSW) 17:26:50 437.200
AO-85 16 Jan 17:19:43 17:22:35 16° 355° (N) 17:25:34 145.980
DOVE 4 16 Jan 17:23:40 17:26:30 17° 270° (W) 17:29:17 437.250
KKS-1 16 Jan 17:24:23 17:28:39 43° 99° (E) 17:32:54 437.445
XW-2C 16 Jan 17:28:14 17:32:04 69° 258° (WSW) 17:35:54 145.795 - 145.815
AAUSAT CUBESAT 2 16 Jan 17:36:19 17:38:48 16° 58° (ENE) 17:41:16 437.432
SEEDS 16 Jan 17:36:49 17:40:31 30° 65° (ENE) 17:44:14 437.485
HO-68 16 Jan 17:37:56 17:45:02 69° 67° (ENE) 17:52:09 435.675
CUTE 1.7 + AOD 2 16 Jan 17:38:21 17:42:28 47° 70° (ENE) 17:46:35 437.475
CUTE-I 16 Jan 17:40:30 17:45:49 73° 256° (WSW) 17:51:10 437.470
ZACube-1 16 Jan 17:49:14 17:52:08 17° 57° (ENE) 17:55:05 437.345
BEESAT 16 Jan 17:54:09 17:56:56 16° 307° (NW) 17:59:42 436.000
STARS 16 Jan 17:55:36 17:59:44 37° 98° (E) 18:03:51 437.465
AO-73 16 Jan 17:59:07 18:02:12 19° 58° (ENE) 18:05:20 145.935
XW-2F 16 Jan 18:10:37 18:13:55 27° 266° (W) 18:17:12 145.980 - 146.000
XW-2D 16 Jan 18:15:58 18:19:02 22° 267° (W) 18:22:06 145.860 - 145.880
KAITUO 1B 16 Jan 18:18:12 18:21:30 28° 265° (W) 18:24:48 145.475/437.950
BEESAT 3 16 Jan 18:19:42 18:23:30 42° 39° (NE) 18:27:13 437.485
CUBESAT XI-V 16 Jan 18:21:08 18:23:50 16° 305° (NW) 18:26:31 437.345
PCSat 16 Jan 18:23:25 18:28:31 38° 38° (NE) 18:33:34 145.827
CUBEBUG 2 16 Jan 18:31:31 18:35:51 83° 255° (WSW) 18:40:24 437.445
XW-2B 16 Jan 18:34:10 18:36:35 16° 270° (W) 18:39:01 145.730 - 145.750
Oscar 11 16 Jan 18:37:41 18:41:17 26° 63° (ENE) 18:44:54 .
NUDT-PHONESAT 16 Jan 18:39:46 18:42:26 18° 269° (W) 18:45:08 437.300
XW-2A 16 Jan 18:47:08 18:50:29 54° 72° (ENE) 18:53:52 145.665 - 145.685
UWE-3 16 Jan 18:47:51 18:52:16 86° 74° (ENE) 18:56:50 435.000/436.395/437.385
FO-29 16 Jan 18:50:19 18:50:36 10° 81° (E) 18:50:53 435.910
BEESAT 2 16 Jan 18:54:40 18:58:21 33° 35° (NE) 19:02:01 435.950
AO-85 16 Jan 19:01:04 19:04:36 21° 20° (NNE) 19:08:19 145.980
KKS-1 16 Jan 19:01:17 19:05:02 28° 298° (WNW) 19:08:48 437.445
DELFI C3 16 Jan 19:04:33 19:05:11 10° 54° (NE) 19:05:48 145.870
NO-84 16 Jan 19:05:23 19:07:44 22° 141° (SE) 19:10:01 435.350 FM
AAUSAT CUBESAT 2 16 Jan 19:09:35 19:13:44 76° 257° (WSW) 19:17:53 437.432
STRAND 1 16 Jan 19:10:31 19:15:12 34° 96° (E) 19:19:51 437.568
SEEDS 16 Jan 19:12:16 19:16:09 34° 264° (W) 19:20:02 437.485
CUTE 1.7 + AOD 2 16 Jan 19:15:09 19:18:32 22° 268° (W) 19:21:55 437.475
RS-15 16 Jan 19:22:52 19:33:05 38° 253° (WSW) 19:42:53 29.354- 29.394
ZACube-1 16 Jan 19:23:24 19:27:51 79° 257° (WSW) 19:32:25 437.345
CUTE-I 16 Jan 19:24:34 19:26:49 13° 276° (W) 19:29:05 437.470
HO-68 16 Jan 19:27:09 19:33:20 31° 268° (W) 19:39:32 435.675
STARS 16 Jan 19:32:07 19:35:59 31° 297° (WNW) 19:39:51 437.465
AO-73 16 Jan 19:33:30 19:37:56 72° 258° (WSW) 19:42:29 145.935
EO-88 16 Jan 19:45:10 19:46:27 12° 57° (ENE) 19:47:43 145.990 - 145.960
BEESAT 3 16 Jan 19:57:26 20:00:56 31° 239° (WSW) 20:04:22 437.485
PCSat 16 Jan 20:06:51 20:12:09 55° 240° (WSW) 20:17:25 145.827
CUBEBUG 2 16 Jan 20:11:49 20:13:17 11° 276° (W) 20:14:45 437.445
Oscar 11 16 Jan 20:13:02 20:17:14 45° 262° (W) 20:21:26 .
XW-2A 16 Jan 20:21:43 20:23:29 13° 270° (W) 20:25:17 145.665 - 145.685
UWE-3 16 Jan 20:27:10 20:29:24 14° 275° (W) 20:31:40 435.000/436.395/437.385
FO-29 16 Jan 20:31:37 20:37:00 67° 102° (ESE) 20:42:09 435.910
BEESAT 2 16 Jan 20:32:20 20:36:14 47° 236° (SW) 20:40:03 435.950
DELFI C3 16 Jan 20:35:16 20:39:11 72° 73° (ENE) 20:43:06 145.870
AO-85 16 Jan 20:41:15 20:45:56 55° 41° (NE) 20:50:57 145.980
NO-84 16 Jan 20:41:46 20:44:38 75° 340° (NNW) 20:47:28 435.350 FM
Max Valier Satellite 16 Jan 20:44:39 20:48:20 61° 73° (ENE) 20:52:04 145.860
TIGRISAT 16 Jan 20:46:47 20:49:25 15° 87° (E) 20:52:02 435.000
STRAND 1 16 Jan 20:49:39 20:54:29 42° 295° (WNW) 20:59:17 437.568
UNISAT 6 16 Jan 21:00:01 21:03:32 21° 90° (E) 21:07:03 437.425
ZACube-1 16 Jan 21:03:33 21:04:55 11° 276° (W) 21:06:18 437.345
AO-73 16 Jan 21:14:50 21:15:01 10° 277° (W) 21:15:13 145.935
EO-88 16 Jan 21:15:49 21:19:29 89° 273° (W) 21:23:11 145.990 - 145.960
LO-87 16 Jan 21:19:37 21:21:58 17° 61° (ENE) 21:24:20 145.935 - 145.965
ESTCUBE 1 16 Jan 21:40:30 21:44:22 28° 63° (ENE) 21:48:14 437.505/2401.250
DELFI C3 16 Jan 22:12:27 22:14:23 13° 272° (W) 22:16:19 145.870
FO-29 16 Jan 22:17:29 22:21:40 23° 305° (NW) 22:25:41 435.910
NO-84 16 Jan 22:19:18 22:22:01 40° 1° (N) 22:24:44 435.350 FM
Max Valier Satellite 16 Jan 22:20:28 22:22:33 14° 271° (W) 22:24:38 145.860
AO-85 16 Jan 22:21:53 22:26:16 34° 240° (WSW) 22:30:54 145.980
TIGRISAT 16 Jan 22:22:01 22:26:43 86° 290° (WNW) 22:31:26 435.000
YUBILEINY 16 Jan 22:30:18 22:37:47 33° 81° (E) 22:45:15 435.215
UNISAT 6 16 Jan 22:35:59 22:40:37 61° 289° (WNW) 22:45:15 437.425
SPROUT 16 Jan 22:39:02 22:42:35 26° 63° (ENE) 22:46:10 437.525
AIST 2D 16 Jan 22:40:29 22:43:04 19° 92° (E) 22:45:38 435.315
PRISM 16 Jan 22:45:45 22:49:41 45° 100° (E) 22:53:35 437.425
ISS 16 Jan 22:49:05 22:51:21 18° 143° (SE) 22:53:38 437.550
LO-87 16 Jan 22:51:33 22:55:01 50° 260° (W) 22:58:33 145.935 - 145.965
QB50P2 16 Jan 22:54:16 22:56:02 12° 86° (E) 22:57:46 145.880/145.840
nSIGHT-1 16 Jan 22:55:44 22:58:22 24° 148° (SSE) 23:01:00 .
ESTCUBE 1 16 Jan 23:16:41 23:21:01 43° 262° (W) 23:25:22 437.505/2401.250
EO-79 16 Jan 23:25:51 23:29:11 22° 92° (E) 23:32:31 145.935-145.965
DUCHIFAT 1 16 Jan 23:31:14 23:34:20 19° 91° (E) 23:37:25 145.980
VELOX 1 16 Jan 23:38:13 23:42:31 56° 70° (ENE) 23:46:50 145.980
NO-84 16 Jan 23:56:32 23:59:23 79° 24° (NNE) 00:02:18 435.350 FM
POLYITAN 1 16 Jan 23:58:58 00:03:06 43° 99° (E) 00:07:12 437.675
TIGRISAT 16 Jan 23:59:58 00:02:45 16° 305° (NW) 00:05:31 435.000
UKube-1 17 Jan 00:10:20 00:13:29 20° 59° (ENE) 00:16:39 .
DX 1 17 Jan 00:10:44 00:14:29 29° 63° (ENE) 00:18:15 434.975-435.025
AIST 2D 17 Jan 00:13:07 00:16:23 37° 290° (WNW) 00:19:36 435.315
SPROUT 17 Jan 00:14:17 00:18:19 41° 262° (W) 00:22:23 437.525
UNISAT 6 17 Jan 00:14:46 00:16:26 12° 309° (NW) 00:18:06 437.425
NANOSAT C BR1 17 Jan 00:19:22 00:23:38 61° 101° (ESE) 00:27:51 145.865
PRISM 17 Jan 00:21:29 00:24:43 23° 298° (WNW) 00:27:56 437.425
ISS 17 Jan 00:24:08 00:27:22 59° 162° (SSE) 00:30:37 437.550
YUBILEINY 17 Jan 00:25:06 00:33:56 72° 284° (WNW) 00:42:46 435.215
QB50P2 17 Jan 00:28:07 00:32:27 90° 238° (WSW) 00:36:45 145.880/145.840
nSIGHT-1 17 Jan 00:31:03 00:34:13 72° 167° (SSE) 00:37:24 .
Oscar 19 17 Jan 00:39:27 00:42:57 18° 88° (E) 00:46:24 437.125/150
50 SAT 17 Jan 00:43:07 00:46:03 43° 70° (ENE) 00:49:02 437.505
AO-91 17 Jan 00:43:55 00:46:51 18° 92° (E) 00:50:00 145.960
MOZHAYETS 4 17 Jan 00:48:37 00:51:32 17° 56° (NE) 00:54:28
BUGSAT 1 17 Jan 00:51:50 00:55:35 30° 95° (E) 00:59:21 437.445
EO-79 17 Jan 01:01:03 01:05:12 49° 291° (WNW) 01:09:20 145.935-145.965
DUCHIFAT 1 17 Jan 01:06:08 01:10:20 56° 289° (WNW) 01:14:30 145.980
ITUPSAT 1 17 Jan 01:08:03 01:11:06 17° 54° (NE) 01:14:11 437.325
VELOX 1 17 Jan 01:16:02 01:19:18 20° 269° (W) 01:22:35 145.980
Gurwin Techsat 1B 17 Jan 01:24:33 01:29:18 32° 94° (E) 01:34:02 435.225
NO-84 17 Jan 01:34:01 01:36:17 21° 220° (SW) 01:38:36 435.350 FM
POLYITAN 1 17 Jan 01:35:06 01:38:41 26° 297° (WNW) 01:42:15 437.675
O/OREOS (USA 219) 17 Jan 01:42:15 01:46:41 59° 114° (ESE) 01:51:08 437.305
UKube-1 17 Jan 01:44:53 01:49:07 60° 257° (WSW) 01:53:24 .
DX 1 17 Jan 01:46:32 01:50:35 38° 262° (W) 01:54:39 434.975-435.025
BEESAT 17 Jan 01:49:32 01:53:49 34° 63° (ENE) 01:58:08 436.000
NANOSAT C BR1 17 Jan 01:55:51 01:58:57 20° 301° (WNW) 02:02:02 145.865
AO-7 17 Jan 01:58:10 02:02:44 15° 82° (E) 02:07:17 .
ISS 17 Jan 02:00:31 02:03:48 90° 209° (SSW) 02:07:05 437.550
QB50P2 17 Jan 02:05:16 02:07:37 14° 304° (NW) 02:09:57 145.880/145.840
nSIGHT-1 17 Jan 02:07:11 02:10:23 85° 186° (S) 02:13:35 .
CUBESAT XI-V 17 Jan 02:14:25 02:18:20 27° 62° (ENE) 02:22:15 437.345
50 SAT 17 Jan 02:16:25 02:18:02 13° 269° (W) 02:19:40 437.505
Oscar 19 17 Jan 02:17:41 02:22:55 81° 288° (WNW) 02:28:05 437.125/150
AO-91 17 Jan 02:19:35 02:23:34 58° 289° (WNW) 02:28:01 145.960
MOZHAYETS 4 17 Jan 02:23:26 02:28:05 87° 255° (WSW) 02:32:46
YUBILEINY 17 Jan 02:26:06 02:32:34 22° 310° (NW) 02:39:05 435.215
BUGSAT 1 17 Jan 02:27:07 02:30:58 35° 294° (WNW) 02:34:50 437.445
ITUPSAT 1 17 Jan 02:43:30 02:48:18 89° 246° (WSW) 02:53:08 437.325
KKS-1 17 Jan 02:53:44 02:55:54 14° 53° (NE) 02:58:06 437.445
Gurwin Techsat 1B 17 Jan 03:04:20 03:09:26 47° 294° (WNW) 03:14:30 435.225
ITAMSAT 1 17 Jan 03:13:41 03:17:54 24° 92° (E) 03:22:05 435.822/435.867
O/OREOS (USA 219) 17 Jan 03:22:42 03:26:27 25° 314° (NW) 03:30:11 437.305
STARS 17 Jan 03:24:21 03:25:50 12° 51° (NE) 03:27:18 437.465
BEESAT 17 Jan 03:27:07 03:31:33 38° 262° (W) 03:36:02 436.000
ISS 17 Jan 03:37:00 03:40:10 48° 202° (SSW) 03:43:22 437.550
DOVE 4 17 Jan 03:39:30 03:39:58 10° 85° (E) 03:40:26 437.250
nSIGHT-1 17 Jan 03:43:25 03:46:22 35° 207° (SSW) 03:49:20 .
AO-7 17 Jan 03:48:57 03:57:18 63° 105° (ESE) 04:05:34 .
CUBESAT XI-V 17 Jan 03:50:55 03:55:28 49° 261° (W) 04:00:03 437.345
Oscar 19 17 Jan 03:58:14 04:01:29 17° 308° (NW) 04:04:42 437.125/150
MOZHAYETS 4 17 Jan 04:03:48 04:05:58 13° 275° (W) 04:08:07
ITUPSAT 1 17 Jan 04:24:21 04:26:50 14° 273° (W) 04:29:21 437.325
KKS-1 17 Jan 04:27:20 04:31:45 79° 73° (ENE) 04:36:12 437.445
Gurwin Techsat 1B 17 Jan 04:46:50 04:48:11 11° 315° (NW) 04:49:32 435.225
ITAMSAT 1 17 Jan 04:52:38 04:57:45 60° 291° (WNW) 05:02:51 435.822/435.867
STRAND 1 17 Jan 04:55:10 04:58:19 17° 52° (NE) 05:01:29 437.568
STARS 17 Jan 04:57:02 05:01:21 66° 71° (ENE) 05:05:42 437.465
M-CUBED/EXP-1 PRIME 17 Jan 05:05:13 05:08:38 43° 105° (ESE) 05:11:50 437.505
FO-29 17 Jan 05:07:19 05:10:45 15° 48° (NE) 05:14:01 435.910
DOVE 4 17 Jan 05:14:08 05:18:22 80° 102° (ESE) 05:22:46 437.250
ISS 17 Jan 05:14:23 05:16:05 13° 220° (SW) 05:17:46 437.550
XW-2F 17 Jan 05:36:49 05:39:45 21° 93° (E) 05:42:39 145.980 - 146.000
AO-7 17 Jan 05:42:06 05:49:48 43° 307° (NW) 05:57:29 .
XW-2D 17 Jan 05:42:07 05:45:22 26° 95° (E) 05:48:33 145.860 - 145.880
KAITUO 1B 17 Jan 05:43:35 05:46:20 19° 92° (E) 05:49:04 145.475/437.950
CUTE-I 17 Jan 05:52:04 05:56:44 30° 94° (E) 06:01:21 437.470
SO-50 17 Jan 05:56:08 05:58:56 16° 112° (ESE) 06:01:45 436.795
XW-2B 17 Jan 05:59:19 06:02:53 38° 97° (E) 06:06:24 145.730 - 145.750
NUDT-PHONESAT 17 Jan 06:02:59 06:06:15 29° 95° (E) 06:09:29 437.300
KKS-1 17 Jan 06:06:25 06:08:53 15° 272° (W) 06:11:22 437.445
CUBEBUG 2 17 Jan 06:17:23 06:20:25 17° 87° (E) 06:23:29 437.445
LilacSat-2 17 Jan 06:20:53 06:24:42 72° 102° (ESE) 06:28:29 437.200
XW-2C 17 Jan 06:29:12 06:33:01 82° 104° (ESE) 06:36:47 145.795 - 145.815
STRAND 1 17 Jan 06:31:41 06:36:46 82° 73° (ENE) 06:41:55 437.568
UWE-3 17 Jan 06:33:06 06:35:34 14° 86° (E) 06:37:59 435.000/436.395/437.385
ITAMSAT 1 17 Jan 06:33:52 06:36:14 13° 312° (NW) 06:38:36 435.822/435.867
STARS 17 Jan 06:35:16 06:38:08 17° 270° (W) 06:41:01 437.465
M-CUBED/EXP-1 PRIME 17 Jan 06:40:10 06:42:46 19° 306° (NW) 06:45:15 437.505
HO-68 17 Jan 06:47:09 06:53:57 44° 98° (E) 07:00:42 435.675
AAUSAT CUBESAT 2 17 Jan 06:47:45 06:49:20 12° 86° (E) 06:50:55 437.432
FO-29 17 Jan 06:48:08 06:54:52 59° 68° (ENE) 07:00:49 435.910
SEEDS 17 Jan 06:50:12 06:53:46 27° 94° (E) 06:57:18 437.485
DOVE 4 17 Jan 06:53:06 06:55:35 15° 302° (WNW) 06:58:06 437.250
CUTE 1.7 + AOD 2 17 Jan 06:53:11 06:57:15 44° 98° (E) 07:01:17 437.475
ZACube-1 17 Jan 07:07:08 07:09:57 16° 87° (E) 07:12:44 437.345
XW-2F 17 Jan 07:10:27 07:14:00 39° 291° (WNW) 07:17:30 145.980 - 146.000
XW-2D 17 Jan 07:16:09 07:19:33 32° 293° (WNW) 07:22:54 145.860 - 145.880
AO-73 17 Jan 07:16:42 07:19:43 17° 88° (E) 07:22:43 145.935
KAITUO 1B 17 Jan 07:16:58 07:20:30 42° 290° (WNW) 07:23:59 145.475/437.950
CUTE-I 17 Jan 07:31:53 07:37:01 50° 293° (WNW) 07:42:08 437.470
XW-2B 17 Jan 07:33:51 07:36:53 23° 296° (WNW) 07:39:54 145.730 - 145.750
SO-50 17 Jan 07:34:16 07:38:45 89° 312° (NW) 07:43:22 436.795
AO-7 17 Jan 07:35:44 07:40:30 17° 332° (NNW) 07:45:15 .
XW-2A 17 Jan 07:35:54 07:38:48 26° 95° (E) 07:41:40 145.665 - 145.685
NUDT-PHONESAT 17 Jan 07:36:51 07:40:03 28° 294° (WNW) 07:43:14 437.300
RS-15 17 Jan 07:41:19 07:51:01 29° 102° (ESE) 08:00:34 29.354- 29.394
TIGRISAT 17 Jan 07:50:18 07:53:49 24° 60° (ENE) 07:57:26 435.000
CUBEBUG 2 17 Jan 07:52:50 07:57:35 77° 286° (WNW) 08:02:20 437.445
Oscar 11 17 Jan 07:54:50 07:58:21 23° 92° (E) 08:01:50 .
LilacSat-2 17 Jan 07:56:23 07:58:29 14° 302° (WNW) 08:00:34 437.200
UNISAT 6 17 Jan 08:03:47 08:07:43 32° 64° (ENE) 08:11:45 437.425
XW-2C 17 Jan 08:04:53 08:06:37 13° 303° (WNW) 08:08:22 145.795 - 145.815
UWE-3 17 Jan 08:07:57 08:12:40 90° 305° (NW) 08:17:21 435.000/436.395/437.385
PRISM 17 Jan 08:08:20 08:09:13 11° 53° (NE) 08:10:05 437.425
STRAND 1 17 Jan 08:13:18 08:16:37 17° 272° (W) 08:19:56 437.568
AAUSAT CUBESAT 2 17 Jan 08:21:15 08:25:24 85° 284° (WNW) 08:29:29 437.432
SEEDS 17 Jan 08:25:40 08:29:34 38° 292° (WNW) 08:33:24 437.485
CUTE 1.7 + AOD 2 17 Jan 08:29:26 08:32:53 25° 297° (WNW) 08:36:18 437.475
O/OREOS (USA 219) 17 Jan 08:29:41 08:31:20 12° 32° (NNE) 08:32:59 437.305
YUBILEINY 17 Jan 08:32:05 08:38:50 24° 52° (NE) 08:45:31 435.215
FO-29 17 Jan 08:34:06 08:40:12 33° 266° (W) 08:45:44 435.910
HO-68 17 Jan 08:34:58 08:41:49 50° 299° (WNW) 08:48:39 435.675
ZACube-1 17 Jan 08:42:10 08:46:47 77° 286° (WNW) 08:51:20 437.345
AO-73 17 Jan 08:51:52 08:56:27 71° 287° (WNW) 09:00:58 145.935
XW-2A 17 Jan 09:08:34 09:11:27 26° 294° (WNW) 09:14:18 145.665 - 145.685
CUTE-I 17 Jan 09:14:10 09:15:55 12° 314° (NW) 09:17:40 437.470
SO-50 17 Jan 09:16:00 09:19:49 26° 335° (NNW) 09:23:42 436.795
AIST 2D 17 Jan 09:19:49 09:22:17 18° 63° (ENE) 09:24:45 435.315
POLYITAN 1 17 Jan 09:24:24 09:25:29 11° 52° (NE) 09:26:35 437.675
TIGRISAT 17 Jan 09:25:54 09:30:12 52° 260° (W) 09:34:39 435.000
AO-7 17 Jan 09:28:45 09:29:53 10° 359° (N) 09:31:00 .
Oscar 11 17 Jan 09:30:32 09:34:43 46° 291° (WNW) 09:38:51 .
CUBEBUG 2 17 Jan 09:30:56 09:33:27 15° 306° (NW) 09:35:59 437.445
PRISM 17 Jan 09:39:40 09:43:43 68° 72° (ENE) 09:47:46 437.425
UNISAT 6 17 Jan 09:40:17 09:44:22 36° 264° (W) 09:48:35 437.425
DELFI C3 17 Jan 09:40:57 09:44:49 54° 101° (E) 09:48:39 145.870
Max Valier Satellite 17 Jan 09:42:40 09:46:11 38° 97° (E) 09:49:40 145.860
NANOSAT C BR1 17 Jan 09:43:07 09:45:20 14° 55° (NE) 09:47:33 145.865
